Regional Weather Roundup
Issued by NWS

Home | Current Version | Previous Version | Text Only | Print | Product List | Glossary Off
Versions: 1 2 3 4 5 6 7 8 9 10 11 12 13 14 15 16 17 18 19 20 21 22 23 24 25 26 27 28 29 30 31 32 33 34 35 36 37 38 39 40 41 42 43 44 45 46 47 48 49 50

000
ASUS43 KLOT 261821
RWRIL

ILLINOIS REGIONAL WEATHER ROUNDUP
NATIONAL WEATHER SERVICE CHICAGO/ROMEOVILLE IL
100 PM CDT THU MAR 26 2015

NOTE: "FAIR" INDICATES FEW OR NO CLOUDS BELOW 12,000 FEET WITH NO
SIGNIFICANT WEATHER AND/OR OBSTRUCTIONS TO VISIBILITY.

* THESE STATIONS ARE NOT UNDER NWS QUALITY CONTROL. THEY ALSO MAY NOT
  REPORT WEATHER SUCH AS PRECIPITATION OR FOG.

ILZ001-002-007-009-015-016-024-261900-
NORTHWEST ILLINOIS

CITY           SKY/WX    TMP DP  RH WIND       PRES   REMARKS
MOLINE         SUNNY     44  24  45 NW15      30.04F
6HR MIN TEMP:  30; 6HR MAX TEMP:  44;

STERLING*      PTSUNNY   45  27  49 W12G20    30.01F
SAVANNA*       MOSUNNY   42  22  45 NW14G23   30.02F
$$

ILZ003-004-008-010-011-017-018-261900-
NORTH CENTRAL ILLINOIS

CITY           SKY/WX    TMP DP  RH WIND       PRES   REMARKS
ROCKFORD       CLOUDY    39  22  50 NW14      30.01F WCI  31
6HR MIN TEMP:  28; 6HR MAX TEMP:  39;

FREEPORT*      CLOUDY    37  23  57 NW15G21   30.02F WCI  28
ROCHELLE*      CLOUDY    38  25  59 NW10G18   30.00F WCI  31
DE KALB*       CLOUDY    37  24  60 NW14      29.99S WCI  28
PERU*          PTSUNNY   42  27  55 W15G22    30.01F
$$

ILZ005-006-012>014-019>023-261900-
NORTHEAST ILLINOIS

CITY           SKY/WX    TMP DP  RH WIND       PRES   REMARKS
CHICAGO-OHARE  PTSUNNY   41  25  53 NW13G21   29.96S
6HR MIN TEMP:  32; 6HR MAX TEMP:  42;

CHICAGO-MIDWAY PTSUNNY   44  25  47 W9G21     29.96F
6HR MIN TEMP:  35; 6HR MAX TEMP:  45;

AURORA         CLOUDY    40  25  55 NW12      29.98F
6HR MIN TEMP:  31; 6HR MAX TEMP:  42;

LANSING*       PTSUNNY   42  23  47 NW12      29.96S
JOLIET*        PTSUNNY   44  28  52 NW10      29.98S
WAUKEGAN       CLOUDY    40  23  50 NW9       29.95S
6HR MIN TEMP:  34; 6HR MAX TEMP:  41;

DUPAGE AIRPORT PTSUNNY   40  24  53 W13       29.97S
6HR MIN TEMP:  31; 6HR MAX TEMP:  41;

KANKAKEE*      MOSUNNY   43  32  64 NW14G21   29.97F
WHEELING       PTSUNNY   43  24  47 W13       29.97F
6HR MIN TEMP:  33; 6HR MAX TEMP:  43;

MORRIS*        CLOUDY    43  28  55 NW13G18   29.98S
ROMEOVILLE*    PTSUNNY   43  25  48 NW14      29.98R
NORTHERLY ISL    N/A     39  26  60 NE5         N/A
$$

LMZ740>746-261900-
SOUTHERN LAKE MICHIGAN

STATION/POSITION SKY/WX   TEMP    WIND        PRES    VSBY  WAVE
                          AIR SEA DIR/SP/G                  HT/PER
                          (F)     (DEG/KT/KT) (MB)    (MI)  (FT/S)
HARRISON CRIB              36      60/  6/  8   N/A
BURNHAM HARBOR             38      90/  4/  9   N/A
CALUMET HARBOR             37      30/ 10/ 13 1013.6F
BURNS HARBOR               36     320/  8/ 11 1015.9S
MICHIGAN CITY              37     280/  6/  6   N/A
$$

ILZ025>027-034>036-040-047-049-050-058-095>099-261900-
WEST-CENTRAL ILLINOIS

CITY           SKY/WX    TMP DP  RH WIND       PRES   REMARKS
QUINCY         SUNNY     44  24  45 NW15G24   30.08F
GALESBURG*     SUNNY     43  26  50 W15G23    30.04F
MACOMB*        MOSUNNY   44  28  53 NW12G17   30.08F
JACKSONVILLE*  CLOUDY    44  29  54 NW16G23   30.06S
PITTSFIELD*    PTSUNNY   43  28  54 NW9       30.09F
$$

ILZ028>032-037-038-041>044-048-051>054-059>061-261900-
CENTRAL ILLINOIS

CITY           SKY/WX    TMP DP  RH WIND       PRES   REMARKS
PONTIAC        PTSUNNY   43  31  62 NW14      30.00S
BLOOMINGTON    PTSUNNY   43  28  55 NW14      30.00F
DECATUR        CLOUDY    43  31  62 NW12G20   30.01F
PEORIA         MOSUNNY   45  23  42 NW12G22   30.02F
6HR MIN TEMP:  33; 6HR MAX TEMP:  47;

LACON*         MOSUNNY   43  27  53 NW15G21   30.02S
LINCOLN*       CLOUDY    43  29  56 NW9G16    30.02F
SPRINGFIELD    CLOUDY    44  27  51 NW13      30.04F
6HR MIN TEMP:  35; 6HR MAX TEMP:  44;

TAYLORVILLE    CLOUDY    41  32  70 W8        30.04R
$$

ILZ033-039-045-046-055>057-062-063-261900-
EAST-CENTRAL ILLINOIS

CITY           SKY/WX    TMP DP  RH WIND       PRES   REMARKS
CHAMPAIGN      PTSUNNY   43  32  65 NW16      29.98F
DANVILLE*      CLOUDY    40  33  74 NW9G18    29.96S
RANTOUL*       PTSUNNY   44  33  66 NW13      29.98F
MATTOON        CLOUDY    41  33  73 NW17G24   30.00R
PARIS*         CLOUDY    42  35  77 NW10G16   29.98F
$$

ILZ079-100>102-261900-
SOUTHWEST ILLINOIS

CITY           SKY/WX    TMP DP  RH WIND       PRES   REMARKS
ALTON          PTSUNNY   41  30  65 NW15      30.08S
BELLEVILLE     CLOUDY    41  32  70 NW12      30.06F
CAHOKIA*       CLOUDY    43  31  62 NW17      30.08F
SPARTA*        CLOUDY    40  33  75 NW13      30.06F
$$

ILZ064>066-069>071-074>076-080>082-084>086-088>090-092>094-261900-
SOUTH-CENTRAL ILLINOIS

CITY           SKY/WX    TMP DP  RH WIND       PRES   REMARKS
CARBONDALE     CLOUDY    40  33  76 N12       30.05S
6HR MIN TEMP:  39; 6HR MAX TEMP:  44; 6HR PCP:  0.07;

CAIRO*         LGT RAIN  42  39  88 N16G25    30.04R
EFFINGHAM*     PTSUNNY   41  31  67 W13       30.05R
MARION         CLOUDY    41  36  81 NW17      30.06R
MT. VERNON     CLOUDY    41  30  65 NW7       30.04F
CENTRALIA*     CLOUDY    40  32  73 NW15G21   30.05S
SALEM*         CLOUDY    43  35  73 NW12      30.05R
METROPOLIS*    LGT RAIN  43  43 100 NW10G16   30.01R
$$

ILZ067-068-072-073-078-083-087-091-261900-
SOUTHEAST ILLINOIS

CITY           SKY/WX    TMP DP  RH WIND       PRES   REMARKS
LAWRENCEVILLE  CLOUDY    43  35  73 NW14      29.99S
FLORA*         CLOUDY    40  33  75 NW9       30.04R
FAIRFIELD*     CLOUDY    41  35  79 NW9       30.01F
HARRISBURG*    LGT RAIN  41  37  86 NW8       30.04S
ROBINSON*      CLOUDY    41  35  77 NW12      30.00F
CARMI*         CLOUDY   N/A N/A N/A NW17      30.01S
$$

ABBREVIATIONS USED IN REMARKS
   TC - TEMPERATURE IN CELSIUS
  WCI - WIND CHILL INDEX
   HX - HEAT INDEX
  VSB - VISIBILITY
$$




USA.gov is the U.S. government's official web portal to all federal, state and local government web resources and services.